When you browse on this site, cookies collect data to enhance your experience and personalize the content and advertising you see.
Visit our Privacy Policy to learn more. By continuing to use the site, you agree to this use of cookies and data.
  • In Hungary
  • List of Countries
  • For 7 days
  • Water Temperature
  • Satellite Maps
  • Weather Map
  • News
  • Weather Widgets
  • user-avatar
    Login

    Hourly Weather High Wycombe

    Today, 13 December, Thursday

    Time Temperature Precipitation Wind Pressure Humidity
    00:00 0°C° 0 mm 5 mps 749 mmHg 79%
    01:00 -1°C° 0 mm 6 mps 748 mmHg 79%
    02:00 -1°C° 0 mm 6 mps 748 mmHg 79%
    03:00 -1°C° 0 mm 6 mps 747 mmHg 80%
    04:00 -1°C° 0 mm 6 mps 747 mmHg 79%
    05:00 -1°C° 0 mm 6 mps 747 mmHg 79%
    06:00 -1°C° 0 mm 6 mps 747 mmHg 78%
    07:00 -1°C° 0 mm 6 mps 747 mmHg 77%
    08:00 -1°C° 0 mm 6 mps 747 mmHg 77%
    09:00 -1°C° 0 mm 6 mps 747 mmHg 76%
    10:00 +1°C° 0 mm 6 mps 747 mmHg 73%
    11:00 +2°C° 0 mm 7 mps 747 mmHg 69%
    12:00 +2°C° 0 mm 7 mps 748 mmHg 66%
    13:00 +2°C° 0 mm 6 mps 748 mmHg 66%
    14:00 +2°C° 0 mm 6 mps 748 mmHg 67%
    15:00 +1°C° 0 mm 5 mps 748 mmHg 67%
    16:00 +1°C° 0 mm 5 mps 748 mmHg 70%
    17:00 0°C° 0 mm 4 mps 748 mmHg 72%
    18:00 -1°C° 0 mm 4 mps 749 mmHg 74%
    19:00 -1°C° 0 mm 4 mps 749 mmHg 76%
    20:00 -1°C° 0 mm 4 mps 750 mmHg 77%
    21:00 0°C° 0 mm 3 mps 750 mmHg 79%
    22:00 -1°C° 0 mm 3 mps 750 mmHg 79%
    23:00 -1°C° 0 mm 3 mps 751 mmHg 80%

    Tomorrow, 14 December, Friday

    Time Temperature Precipitation Wind Pressure Humidity
    00:00 -1°C° 0 mm 2 mps 751 mmHg 80%
    01:00 -1°C° 0 mm 2 mps 751 mmHg 80%
    02:00 -1°C° 0 mm 2 mps 752 mmHg 79%
    03:00 -1°C° 0 mm 2 mps 752 mmHg 79%
    04:00 -1°C° 0 mm 2 mps 752 mmHg 80%
    05:00 -1°C° 0 mm 2 mps 752 mmHg 80%
    06:00 -1°C° 0 mm 2 mps 752 mmHg 81%
    07:00 -1°C° 0 mm 2 mps 752 mmHg 81%
    08:00 -1°C° 0 mm 2 mps 752 mmHg 81%
    09:00 +1°C° 0 mm 1 mps 753 mmHg 81%
    10:00 +1°C° 0 mm 2 mps 753 mmHg 77%
    11:00 +1°C° 0 mm 3 mps 753 mmHg 73%
    12:00 +2°C° 0 mm 3 mps 753 mmHg 69%
    13:00 +2°C° 0 mm 3 mps 753 mmHg 71%
    14:00 +3°C° 0 mm 2 mps 753 mmHg 73%
    15:00 +3°C° 0 mm 2 mps 753 mmHg 74%
    16:00 +2°C° 0 mm 2 mps 753 mmHg 77%
    17:00 +1°C° 0 mm 2 mps 752 mmHg 80%
    18:00 -1°C° 0 mm 2 mps 752 mmHg 83%
    19:00 -1°C° 0 mm 3 mps 752 mmHg 83%
    20:00 -1°C° 0 mm 3 mps 752 mmHg 83%
    21:00 -1°C° 0 mm 3 mps 752 mmHg 82%
    22:00 -1°C° 0 mm 3 mps 752 mmHg 80%
    23:00 -1°C° 0 mm 4 mps 751 mmHg 78%

    Day after tomorrow, 15 December, Saturday

    Time Temperature Precipitation Wind Pressure Humidity
    00:00 -1°C° 0 mm 4 mps 751 mmHg 76%
    01:00 -1°C° 0 mm 5 mps 750 mmHg 77%
    02:00 -1°C° 0 mm 5 mps 750 mmHg 78%
    03:00 -1°C° 0 mm 5 mps 750 mmHg 79%
    04:00 -2°C° 0 mm 6 mps 749 mmHg 77%
    05:00 -1°C° 0 mm 6 mps 748 mmHg 75%
    06:00 -1°C° 0 mm 7 mps 747 mmHg 73%
    07:00 -1°C° 0.8 mm 7 mps 747 mmHg 74%
    08:00 -1°C° 0.8 mm 8 mps 746 mmHg 75%
    09:00 0°C° 0.8 mm 8 mps 745 mmHg 76%
    10:00 0°C° 0.5 mm 9 mps 744 mmHg 80%
    11:00 0°C° 0.5 mm 9 mps 744 mmHg 83%
    12:00 0°C° 0.5 mm 10 mps 743 mmHg 87%
    13:00 0°C° 0.8 mm 10 mps 742 mmHg 88%
    14:00 +1°C° 0.8 mm 10 mps 740 mmHg 90%
    15:00 +1°C° 0.8 mm 10 mps 739 mmHg 91%
    16:00 +3°C° 1 mm 10 mps 738 mmHg 92%
    17:00 +5°C° 1 mm 10 mps 737 mmHg 92%
    18:00 +6°C° 1 mm 10 mps 735 mmHg 93%
    19:00 +6°C° 1.6 mm 9 mps 735 mmHg 90%
    20:00 +6°C° 1.6 mm 9 mps 734 mmHg 87%
    21:00 +6°C° 1.6 mm 8 mps 734 mmHg 85%
    22:00 +6°C° 0 mm 8 mps 735 mmHg 83%
    23:00 +5°C° 0 mm 8 mps 736 mmHg 81%

    16 December, Sunday

    Time Temperature Precipitation Wind Pressure Humidity
    00:00 +4°C° 0 mm 7 mps 736 mmHg 80%
    01:00 +4°C° 0 mm 7 mps 737 mmHg 80%
    02:00 +3°C° 0 mm 6 mps 738 mmHg 80%
    03:00 +3°C° 0 mm 5 mps 739 mmHg 80%
    04:00 +2°C° 0 mm 5 mps 739 mmHg 82%
    05:00 +3°C° 0 mm 4 mps 740 mmHg 84%
    06:00 +3°C° 0 mm 4 mps 740 mmHg 86%
    07:00 +3°C° 0 mm 3 mps 741 mmHg 87%
    08:00 +2°C° 0 mm 3 mps 741 mmHg 87%
    09:00 +2°C° 0 mm 3 mps 742 mmHg 88%
    10:00 +4°C° 0 mm 3 mps 742 mmHg 84%
    11:00 +5°C° 0 mm 3 mps 742 mmHg 81%
    12:00 +7°C° 0 mm 3 mps 742 mmHg 78%
    13:00 +7°C° 0.1 mm 3 mps 742 mmHg 81%
    14:00 +5°C° 0.1 mm 3 mps 742 mmHg 83%
    15:00 +5°C° 0.1 mm 3 mps 741 mmHg 86%
    16:00 +5°C° 0.5 mm 3 mps 742 mmHg 88%
    17:00 +5°C° 0.5 mm 3 mps 742 mmHg 90%
    18:00 +5°C° 0.5 mm 3 mps 742 mmHg 92%
    19:00 +4°C° 0.5 mm 3 mps 742 mmHg 92%
    20:00 +4°C° 0.5 mm 3 mps 742 mmHg 93%
    21:00 +4°C° 0.5 mm 3 mps 742 mmHg 94%
    22:00 +4°C° 0.3 mm 3 mps 743 mmHg 93%
    23:00 +3°C° 0.3 mm 3 mps 743 mmHg 92%

    17 December, Monday

    Time Temperature Precipitation Wind Pressure Humidity
    00:00 +3°C° 0.3 mm 4 mps 743 mmHg 91%
    01:00 +3°C° 0 mm 3 mps 743 mmHg 91%
    02:00 +2°C° 0 mm 3 mps 744 mmHg 90%
    03:00 +2°C° 0 mm 3 mps 744 mmHg 90%
    04:00 +2°C° 0 mm 3 mps 745 mmHg 90%
    05:00 +2°C° 0 mm 3 mps 745 mmHg 91%
    06:00 +1°C° 0 mm 3 mps 745 mmHg 91%
    07:00 +2°C° 0 mm 3 mps 746 mmHg 91%
    08:00 +2°C° 0 mm 3 mps 747 mmHg 91%
    09:00 +3°C° 0 mm 2 mps 747 mmHg 91%
    10:00 +4°C° 0 mm 2 mps 748 mmHg 88%
    11:00 +5°C° 0 mm 2 mps 748 mmHg 85%
    12:00 +6°C° 0 mm 2 mps 748 mmHg 82%
    13:00 +6°C° 0 mm 2 mps 748 mmHg 84%
    14:00 +6°C° 0 mm 2 mps 749 mmHg 86%
    15:00 +6°C° 0 mm 2 mps 749 mmHg 87%
    16:00 +5°C° 0 mm 2 mps 749 mmHg 88%
    17:00 +4°C° 0 mm 3 mps 749 mmHg 89%
    18:00 +3°C° 0 mm 3 mps 749 mmHg 90%
    19:00 +3°C° 0 mm 3 mps 748 mmHg 90%
    20:00 +3°C° 0 mm 3 mps 748 mmHg 90%
    21:00 +4°C° 0 mm 4 mps 748 mmHg 91%
    22:00 +4°C° 0 mm 4 mps 748 mmHg 91%
    23:00 +5°C° 0 mm 5 mps 748 mmHg 91%

    18 December, Tuesday

    Time Temperature Precipitation Wind Pressure Humidity
    00:00 +5°C° 0 mm 5 mps 747 mmHg 91%
    01:00 +6°C° 0 mm 5 mps 747 mmHg 91%
    02:00 +5°C° 0 mm 6 mps 746 mmHg 91%
    03:00 +7°C° 0 mm 6 mps 746 mmHg 91%
    04:00 +7°C° 0 mm 6 mps 745 mmHg 90%
    05:00 +6°C° 0 mm 7 mps 744 mmHg 90%
    06:00 +6°C° 0 mm 7 mps 744 mmHg 89%
    07:00 +6°C° 0 mm 8 mps 743 mmHg 88%
    08:00 +6°C° 0 mm 8 mps 743 mmHg 87%
    09:00 +6°C° 0 mm 8 mps 742 mmHg 85%
    10:00 +6°C° 0.1 mm 8 mps 742 mmHg 82%
    11:00 +6°C° 0.1 mm 8 mps 741 mmHg 79%
    12:00 +6°C° 0.1 mm 8 mps 741 mmHg 76%
    13:00 +6°C° 0.1 mm 8 mps 740 mmHg 76%
    14:00 +6°C° 0.1 mm 7 mps 739 mmHg 76%
    15:00 +6°C° 0.1 mm 7 mps 739 mmHg 76%
    16:00 +5°C° 0.4 mm 7 mps 738 mmHg 78%
    17:00 +5°C° 0.4 mm 7 mps 737 mmHg 80%
    18:00 +5°C° 0.4 mm 7 mps 737 mmHg 82%
    19:00 +5°C° 0.8 mm 6 mps 736 mmHg 84%
    20:00 +4°C° 0.8 mm 6 mps 735 mmHg 85%
    21:00 +4°C° 0.8 mm 6 mps 735 mmHg 87%
    22:00 +4°C° 0.5 mm 6 mps 734 mmHg 88%
    23:00 +6°C° 0.5 mm 5 mps 734 mmHg 90%
    Show more